Regional Weather Roundup
Issued by NWS Wakefield, VA

Home | Current Version | Previous Version | Text Only | Print | Product List | Glossary Off
Versions: 1 2 3 4 5 6 7 8 9 10 11 12 13 14 15 16 17 18 19 20 21 22 23 24 25 26 27 28 29 30 31 32 33 34 35 36 37 38 39 40 41 42 43 44 45 46 47 48 49 50

000
ASUS41 KAKQ 242114
RWRAKQ

REGIONAL WEATHER ROUNDUP
NATIONAL WEATHER SERVICE WAKEFIELD VA
500 PM EDT SUN MAY 24 2015

Note: "fair" indicates few or no clouds below 12,000 feet with no
significant weather and/or obstructions to visibility. * = Denotes
station may not report precipitation (e.g., rain,snow,etc.),
thunder or fog.

VAZ042-051-052>054-056-242200-
NORTHERN VIRGINIA

CITY           SKY/WX    TMP DP  RH WIND       PRES   REMARKS
WASH NATIONAL  MOSUNNY   81  58  45 S12       30.26F
DULLES         MOSUNNY   81  52  36 S7        30.26F
FORT BELVOIR   SUNNY     82  56  41 VRB6      30.26F
QUANTICO       MOSUNNY   79  65  62 S8        30.27F
FREDERICKSBRG* MOSUNNY   85  55  35 SW9       30.26S
STAFFORD*      MOSUNNY   83  50  31 SW7       30.30F
WARRENTON      MOSUNNY   83  58  42 S5        30.26S
CULPEPER*      MOSUNNY   80  53  38 SW6       30.26F
MANASSAS*      MOSUNNY   82  54  36 S5        30.26F
LEESBURG*      SUNNY     82  52  34 W8        30.27F
WINCHESTER     SUNNY     82  36  18 S3        30.26F
FRONT ROYAL*   FAIR      79  57  47 CALM      30.25S
LURAY*         MOCLDY    82  55  39 SE6       30.26S
$$

VAZ048-049-060>072-079>083-242200-
CENTRAL AND SOUTH CENTRAL VIRGINIA

CITY           SKY/WX    TMP DP  RH WIND       PRES   REMARKS
RICHMOND       MOSUNNY   82  55  39 SW10      30.29F
CHESTERFIELD*  NOT AVBL
PETERSBURG*    MOSUNNY   82  53  35 S6        30.31S
HANOVER        MOSUNNY   82  55  39 S10       30.30F
TAPPAHANNOCK*  MOSUNNY   83  48  29 S5        30.29F
QUINTON*       FAIR      81  56  42 S5        30.29F
CHARLOTTSVILLE SUNNY     82  52  35 SW14G21   30.26F
GORDONSVILLE*  FAIR      82  54  38 S9G17     30.26F
ORANGE*        SUNNY     82  52  34 S12G17    30.28F
LOUISA*        MOSUNNY   82  54  36 SW10G16   30.27S
BUMPASS*       FAIR      80  56  43 SW8       30.28S
FARMVILLE*     MOSUNNY   82  53  37 SW7       30.29S
CREWE*         FAIR      81  53  38 SW7       30.30F
FORT PICKETT*  NOT AVBL
CHASE CITY*    FAIR      82  58  42 S8        30.31F
CLARKSVILLE*   FAIR      79  55  44 S7        30.30F
SOUTH HILL*    MOSUNNY   79  57  46 CALM      30.37F
LAWRENCEVILLE* FAIR      81  59  47 S5        30.31F
EMPORIA*       MOSUNNY   79  55  44 S6        30.33S
$$

VAZ088>098-242200-
SOUTHEAST VIRGINIA

CITY           SKY/WX    TMP DP  RH WIND       PRES   REMARKS
NORFOLK        PTSUNNY   78  55  44 S10       30.31F
VIRGINIA BEACH MOSUNNY   77  54  44 SE15      30.32F
NORFOLK NAVAL  PTSUNNY   86  55  34 VRB7      30.32F
WEST POINT*    MOSUNNY   85  50  30 S7        30.31F
SALUDA*        FAIR      79  60  51 S10       30.29F
NEWPORT NEWS   SUNNY     84  55  36 SW9       30.31F
LANGLEY AFB    MOSUNNY   79  58  48 SE9       30.30F
FORT EUSTIS    SUNNY     80  60  51 S6        30.28F
WILLIAMSBURG*  SUNNY     86  57  37 SW5       30.31F
HR EXEC AP*    MOCLDY    82  57  42 SW9       30.32F
FRANKLIN*      MOSUNNY   81  54  39 S10       30.32F
WAKEFIELD      MOSUNNY   82  57  42 S7        30.30F
$$

VAZ020-022-025-037-045-242200-
WEST CENTRAL AND SOUTHWEST VIRGINIA

CITY           SKY/WX    TMP DP  RH WIND       PRES   REMARKS
STAUNTON*      SUNNY     82  47  30 S12       30.29F
WAYNESBORO*    FAIR      78  51  39 S8G16     30.29F
HOT SPRINGS VA PTSUNNY   70  49  46 SE8       30.37F
LYNCHBURG      SUNNY     79  53  40 SW8       30.31F
DANVILLE       MOSUNNY   82  53  36 S7        30.31F
SOUTH BOSTON*  FAIR      81  55  40 MISG      30.31F
MARTINSVILLE   SUNNY     82  50  32 SW6       30.33F
ROANOKE        MOSUNNY   81  50  33 S13       30.30F
BLACKSBURG     SUNNY     75  48  39 CALM      30.36F
DUBLIN*        SUNNY     78  49  36 SW8       30.34S
MARION*        SUNNY     76  49  37 SE6       30.35S
HILLSVILLE*    SUNNY     72  51  48 S7        30.36F
RICHLANDS*     FAIR      78  52  39 SE8       30.31F
WISE*          SUNNY     79  41  25 S6        30.32F
ABINGDON*      SUNNY     82  46  27 S10       30.28F
$$

MDZ021>025-VAZ099-100-242200-
SOUTHERN MARYLAND AND THE DELMARVA PENINSULA

CITY           SKY/WX    TMP DP  RH WIND       PRES   REMARKS
PATUXENT RIVER MOSUNNY   73  60  63 SE16      30.28F
BAY BRIDGE APT   N/A    N/A N/A N/A S8        30.28F
LEONARDTOWN    MOSUNNY   79  54  41 SW5       30.29F
DOVER          SUNNY     80  56  44 W9        30.25F
GEORGETOWN     SUNNY     79  55  43 SW13G20   30.28F
EASTON         NOT AVBL
CAMBRIDGE      SUNNY     77  55  47 S10       30.29S
SALISBURY      SUNNY     77  54  44 S9        30.29F
OCEAN CITY     SUNNY     67  50  54 S13G23    30.33F
WALLOPS ISLAND SUNNY     68  50  52 S17       30.34F
ACCOMACK*      SUNNY     72  52  49 S13G18    30.33F
$$

NCZ012>017-030>032-242200-
NORTH CENTRAL AND EASTERN NORTH CAROLINA

CITY           SKY/WX    TMP DP  RH WIND       PRES   REMARKS
ROANOKE RAPIDS FAIR      81  54  39 SW9       30.32F
RALEIGH        MOSUNNY   81  55  40 VRB5      30.32F
ELIZABETH CITY SUNNY     77  56  48 SE10      30.34F
AHOSKIE*       SUNNY     79  54  42 S5        30.32F
EDENTON*         N/A     79  57  47 SE7       30.34F
CURRITUCK*     SUNNY     77  53  42 SE5       30.34F
KILL DEVIL HLS SUNNY     73  53  48 SE8       30.36F
MANTEO         SUNNY     74  51  44 S7        30.37F
CAPE HATTERAS  SUNNY     77  50  38 SE6       30.38F
TARBORO*       FAIR      83  54  36 SW9       30.33F
GOLDSBORO      SUNNY     83  55  37 S2        30.30F
WASHINGTON     SUNNY     78  56  46 S6        30.35F
GREENVILLE     SUNNY     82  54  36 S5        30.33F
NEW BERN       SUNNY     78  56  46 SE9       30.36F
WILMINGTON     MOSUNNY   77  57  50 SE8       30.35F
$$

VAZ048-242200-
ELSEWHERE

CITY           SKY/WX    TMP DP  RH WIND       PRES   REMARKS
HARRISBURG PA  MOSUNNY   80  46  30 SE6       30.24F
BALTIMORE      MOSUNNY   81  48  31 SW5       30.25F
ANNAPOLIS      SUNNY     74  57  55 S10       30.27F
ANDREWS AFB    SUNNY     81  57  44 SW6       30.26F
PHILADELPHIA   MOSUNNY   81  43  26 SW12      30.26F
HENDERSON NC   SUNNY     79  51  37 S6        30.32F
GREENSBORO     MOSUNNY   79  51  37 S10       30.31F
ROCKY MOUNT    MOSUNNY   82  55  39 S6        30.32F
$$

VAZ100-242200-
MARINE

STATION/POSITION TIME  TEMP    WIND        PRES    WAVE   SWELL
                       AIR SEA DIR/SP/G            HT/PER HT/PER
                 (UTC) (F)     (DEG/KT/KT) (MB)    (FT/S) (FT/S)
BRANDYWINE LGT   2000   63 63  170/ 19/ 20 1025.8F
CAPE MAY NJ      2000   65 67  170/ 13/ 20 1025.9F
LEWES DE         2000   74 63  170/ 10/ 16 1025.5F
15NM E FENWICK I 2050   62 61              1026.4F   2/ 3
OCEAN-CITY-INLET 2000   63 62  210/ 14/ 18 1027.1F
WACHAPREAGUE VA  2000   69 71  190/ 12/ 16 1027.8F
THOMAS POINT MD  2100   69 67  200/ 10/ 12 1025.8F
GOOSES REEF MD   2100   68 66  170/ 14/ 17 1026.2F   1/ 3
SOLOMONS ISLAND  2000      70                N/A
BISHOPS HEAD MD  2000   70 74  160/ 16/ 19 1026.0F
PINEY POINT MD   2000          150/ 12/ 13   N/A
CAMBRIDGE MD     2000   76 69  190/  7/ 12 1025.8F
LEWISETTA VA     2000   79 72              1025.4F
RAPPAHANNOCK LGT 2000          150/ 13/ 14 1027.5F
STINGRAY PT      2100   69 69  170/ 16/ 19 1026.0F   2/ 3
YORK RVR RNG VA  2000   69     150/ 18/ 20 1026.1F
YORKTOWN VA      2000   74 71   80/  6/  8 1026.4F
JAMESTOWN VA     2000   78 75  240/  8/ 10 1025.7F
DOMINION TERM VA 2000   76     190/  5/  6 1027.1F
KIPTOPEKE VA     2000      73  170/ 17/ 19   N/A
CHES BAY BRIDGE  2000   72 66  100/  5/ 10 1027.0F
CAPE HENRY VA    2000   70     140/ 13/ 18 1026.3F
CHESAPEAKE LGHT  2000   64     150/ 18/ 19 1028.4F
WILLOUBY STN VA  2000   72     100/ 10/ 12 1027.8F
CAPE HENRY BUOY  2028      66                N/A     2/ 3
1ST LANDING BUOY 2100      67              1026.5F
CAPE CHARLES BUO 2026      66                N/A     2/ 3   2/10
OFFSHORE WE BUOY 2011      62                N/A     2/ 8   2/ 8
64NM E OF VA BCH 2050   64 63  140/  6/  8 1028.2F   1/ 7   2/ 7
DUCK PIER NC     2000   68 65  130/ 12/ 13 1027.5F
44100 DUCK FRF   2024      65                N/A     2/ 8
44056 DUCK FRF   2011      65                N/A     2/ 7
OREGON INLET NC  2000   70 71  100/  7/ 12 1028.8F
HATTERAS NC      2000   75 73  130/  5/  6 1028.4F
DIAMOND SHLS NC  2050   73 78   20/  8/ 10 1028.7F   2/ 8   2/ 8
CAPE LOOKOUT NC  2100   74      60/  8/  8 1028.1F
$$



USA.gov is the U.S. government's official web portal to all federal, state and local government web resources and services.